Fullerton, CA

3:48 PM PST on November 20, 2017 (GMT -0800)
Fullerton Municipal

Weather History for KFUL - July, 2013

Change the Weather History Date:

Friday, July 12, 2013

  Actual Average Record
Temperature  
Mean Temperature 79 °F 74 °F  
Max Temperature 87 °F 83 °F 97 °F (2006)
Min Temperature 71 °F 64 °F 58 °F (2001)
Degree Days  
Heating Degree Days 0 0  
Month to date heating degree days 0 0  
Since 1 June heating degree days 0 2  
Since 1 July heating degree days 0 0  
Cooling Degree Days 14 9  
Month to date cooling degree days 158 96  
Year to date cooling degree days 788 364  
Since 1 June cooling degree days 433 241  
Growing Degree Days 28 (Base 50)    
Moisture  
Dew Point 63 °F    
Average Humidity 61    
Maximum Humidity 79    
Minimum Humidity 43    
Precipitation  
Precipitation T in 0.00 in 0.00 in (2017)
Month to date precipitation T 0.01  
Year to date precipitation 2.53 9.66  
Since 1 July precipitation T  
Snow  
Snow 0.00 in - - ()
Month to date snowfall 0.0  
Year to date snowfall 0.0  
Snow Depth 0.00 in    
Sea Level Pressure  
Sea Level Pressure 29.89 in    
Wind  
Wind Speed 3 mph (SW)    
Max Wind Speed 12 mph    
Max Gust Speed 15 mph    
Visibility 8 miles    
Events      
T = Trace of Precipitation, MM = Missing Value Source: NWS Daily Summary

Daily Weather History Graph

Daily Weather History Graph

Search for Another Location

Airport or City:

Trip Planner

Search our weather history database for the weather conditions in past years. The results will help you decide how hot, cold, wet, or windy it might be!

Date:

Astronomy

Jul. 12, 2013 Rise Set
Actual Time 5:50 AM PDT 8:04 PM PDT
Civil Twilight 5:21 AM PDT 8:33 PM PDT
Nautical Twilight 4:46 AM PDT 9:07 PM PDT
Astronomical Twilight 4:08 AM PDT 9:45 PM PDT
Moon 9:57 AM PDT (7/12) 10:33 PM PDT (7/12)
Length of Visible Light 15h 11m
Length of Day
14h 14m
Waxing Crescent, 18% of the Moon is Illuminated
Jul 12
Waxing Crescent
Jul 15
First Quarter
Jul 22
Full
Jul 29
Last Quarter
Aug 6
New

Hourly Weather History & Observations

Time (PDT) Temp. Heat Index Dew Point Humidity Pressure Visibility Wind Dir Wind Speed Gust Speed Precip Events Conditions
12:53 AM 71.1 °F - 64.0 °F 78% 29.90 in 9.0 mi SSW 4.6 mph - N/A   Clear
1:16 AM 71.6 °F - 64.4 °F 78% 29.91 in 9.0 mi South 3.5 mph - N/A   Mostly Cloudy
1:53 AM 71.1 °F - 64.0 °F 78% 29.91 in 8.0 mi Calm Calm - N/A   Overcast
2:53 AM 71.1 °F - 64.0 °F 78% 29.90 in 8.0 mi Calm Calm - 0.00 in   Overcast
3:53 AM 71.1 °F - 64.0 °F 78% 29.90 in 8.0 mi SSW 3.5 mph - N/A   Overcast
4:53 AM 71.1 °F - 64.0 °F 78% 29.90 in 7.0 mi Calm Calm - N/A   Overcast
5:53 AM 71.1 °F - 64.0 °F 78% 29.91 in 7.0 mi Calm Calm - N/A   Overcast
6:53 AM 72.0 °F - 64.0 °F 76% 29.91 in 6.0 mi Calm Calm - N/A   Haze
7:53 AM 72.0 °F - 64.0 °F 76% 29.92 in 6.0 mi Calm Calm - N/A   Haze
8:53 AM 73.0 °F - 64.0 °F 73% 29.92 in 6.0 mi Calm Calm - N/A   Haze
9:53 AM 75.0 °F - 64.0 °F 69% 29.92 in 7.0 mi Calm Calm - N/A   Overcast
10:45 AM 77.0 °F - 64.4 °F 65% 29.92 in 7.0 mi Calm Calm - N/A   Scattered Clouds
10:53 AM 77.0 °F - 64.0 °F 64% 29.92 in 7.0 mi Calm Calm - N/A   Scattered Clouds
11:53 AM 80.1 °F 81.7 °F 64.0 °F 58% 29.91 in 9.0 mi Variable 4.6 mph - N/A   Clear
12:53 PM 82.9 °F 84.4 °F 64.0 °F 53% 29.90 in 9.0 mi Variable 5.8 mph - N/A   Clear
1:53 PM 87.1 °F 87.5 °F 62.1 °F 43% 29.89 in 10.0 mi Variable 6.9 mph - N/A   Clear
2:53 PM 87.1 °F 87.5 °F 62.1 °F 43% 29.88 in 10.0 mi SW 8.1 mph - N/A   Clear
3:53 PM 86.0 °F 86.8 °F 63.0 °F 46% 29.86 in 10.0 mi Variable 5.8 mph - N/A   Clear
4:53 PM 84.9 °F 85.9 °F 63.0 °F 48% 29.85 in 10.0 mi SSW 6.9 mph - N/A   Clear
5:53 PM 84.9 °F 85.4 °F 62.1 °F 46% 29.83 in 10.0 mi Variable 6.9 mph - N/A   Clear
6:53 PM 82.0 °F 82.4 °F 60.1 °F 47% 29.84 in 10.0 mi Variable 4.6 mph - N/A   Clear
7:53 PM 77.0 °F - 60.1 °F 56% 29.85 in 10.0 mi WNW 5.8 mph - N/A   Clear
8:53 PM 73.9 °F - 60.1 °F 62% 29.87 in 10.0 mi West 4.6 mph - N/A   Clear
9:53 PM 72.0 °F - 60.1 °F 66% 29.89 in 10.0 mi Variable 3.5 mph - N/A   Clear
10:53 PM 70.0 °F - 60.1 °F 71% 29.91 in 8.0 mi Calm Calm - N/A   Clear
11:53 PM 69.1 °F - 60.1 °F 73% 29.93 in 7.0 mi WNW 3.5 mph - N/A   Clear